{"data":{"norad_id":46457,"intl_designator":"2020-065D","name":"JILIN-1 GAOFEN 3E","alt_names":[],"object_type":"PAYLOAD","status":"ACTIVE","operator":null,"country":"PRC","launch_date":"2020-09-15","launch_site_code":"SEAL","launch_vehicle":null,"mission":null,"orbit_class":"UNKNOWN","rcs_meters":null,"size_class":null,"mass_kg":null,"dimensions":null,"purposes":[],"wikipedia_slug":null,"has_3d_model":false,"image_url":null,"decayed_at":null,"tle_current":{"epoch":"2026-09-20T02:43:13.999008Z","epoch_age_seconds":95140,"freshness":"FRESH","line1":"1 46457U 20065D   26263.11335647  .00105051  00000+0  60759-3 0  9999","line2":"2 46457  97.2076 318.7552 0009266 160.6122 199.5500 15.78247934334651","mean_motion":15.78247934,"eccentricity":0.0009266,"inclination_deg":97.2076,"raan_deg":318.7552,"arg_perigee_deg":160.6122,"mean_anomaly_deg":199.55,"bstar":0.00060759,"rev_number":33465,"period_min":91.240417235991,"perigee_km":329.18389403203,"apogee_km":341.62542943956,"semimajor_km":6713.5416617358,"source":"CELESTRAK","updated_at":"2026-09-20T09:00:14.757101Z"}}}